MST,Max TemperatureF,Mean TemperatureF,Min TemperatureF,Max Dew PointF,MeanDew PointF,Min DewpointF,Max Humidity, Mean Humidity, Min Humidity, Max Sea Level PressureIn, Mean Sea Level PressureIn, Min Sea Level PressureIn, Max VisibilityMiles, Mean VisibilityMiles, Min VisibilityMiles, Max Wind SpeedMPH, Mean Wind SpeedMPH, Max Gust SpeedMPH,PrecipitationIn, CloudCover, Events, WindDirDegrees
2013-9-1,107,96,84,67,62,55,55,37,19,29.83,29.77,29.70,10,10,10,12,5,16,0.00,3,,248
2013-9-2,106,96,85,68,65,58,55,40,25,29.82,29.76,29.69,10,10,9,24,7,28,0.00,4,Thunderstorm,174
2013-9-3,109,97,85,66,61,55,51,35,18,29.83,29.76,29.69,10,10,9,24,6,29,0.00,3,,351
2013-9-4,105,94,83,72,66,55,59,39,19,29.87,29.81,29.76,10,10,9,26,8,33,0.02,4,Rain-Thunderstorm,264
2013-9-5,110,96,82,71,62,51,69,43,16,29.82,29.76,29.70,10,10,10,17,4,19,T,4,Rain,292
2013-9-6,107,95,83,70,62,52,61,39,17,29.83,29.76,29.69,10,9,0,33,10,41,0.01,5,Rain-Thunderstorm,174
2013-9-7,98,90,82,67,64,60,58,44,29,29.89,29.83,29.78,10,10,10,18,6,24,0.00,6,,114
2013-9-8,101,90,78,70,64,60,74,51,27,29.79,29.72,29.65,10,10,7,21,6,25,T,4,Rain-Thunderstorm,120
2013-9-9,101,87,73,71,65,60,87,61,35,29.74,29.69,29.60,10,10,4,29,9,33,0.34,5,Rain-Thunderstorm,128
2013-9-10,93,83,73,73,67,62,87,63,38,29.82,29.78,29.74,10,10,9,15,5,18,0.14,4,Rain-Thunderstorm,176
2013-9-11,98,88,78,73,65,53,79,52,24,29.89,29.83,29.78,10,10,10,10,6,13,0.00,1,,147
2013-9-12,103,92,80,70,59,47,69,42,15,29.84,29.76,29.68,10,10,7,12,5,14,0.00,0,,358
2013-9-13,106,93,79,62,53,46,54,34,14,29.70,29.63,29.54,10,9,7,14,4,19,0.00,0,,354
2013-9-14,108,96,83,60,52,45,43,28,13,29.63,29.58,29.53,10,10,10,12,4,14,0.00,0,,64
2013-9-15,109,96,82,57,51,40,40,25,10,29.68,29.63,29.59,10,10,10,10,4,14,0.00,0,,67
2013-9-16,111,98,84,55,48,36,34,21,8,29.71,29.65,29.60,10,10,10,12,3,17,0.00,0,,90
2013-9-17,109,95,80,53,44,33,37,23,8,29.67,29.61,29.52,10,10,10,15,5,18,0.00,0,,224
2013-9-18,101,88,74,64,48,24,60,34,7,29.66,29.60,29.55,10,10,10,17,6,20,0.00,0,,204
2013-9-19,100,87,74,65,50,41,41,28,14,29.73,29.67,29.62,10,10,10,9,4,12,0.00,0,,184
2013-9-20,103,89,75,65,57,44,69,42,14,29.75,29.69,29.64,10,10,10,18,7,22,0.00,0,,169
2013-9-21,102,90,78,69,54,34,58,35,12,29.74,29.67,29.59,10,10,10,18,9,29,0.00,1,,189
2013-9-22,91,81,70,48,38,24,41,25,9,29.74,29.69,29.63,10,9,6,20,10,26,0.00,0,,332
2013-9-23,96,83,69,42,32,26,28,19,9,29.84,29.79,29.74,10,10,7,15,5,19,0.00,0,,27
2013-9-24,111,91,71,62,48,37,58,36,14,29.86,29.80,29.72,10,8,7,7,3,,0.00,0,,170
2013-9-25,97,84,71,63,48,24,73,43,12,29.75,29.66,29.56,10,9,7,14,6,18,0.00,0,,215
2013-9-26,87,79,71,43,31,17,35,23,11,29.75,29.66,29.60,10,10,10,22,11,28,0.00,0,,319
2013-9-27,87,76,66,46,27,18,48,28,7,29.93,29.88,29.76,10,10,10,23,10,30,0.00,0,,353
2013-9-28,94,78,62,32,26,18,30,19,7,30.01,29.95,29.91,10,10,10,14,5,18,0.00,0,,338
2013-9-29,97,82,66,38,30,21,30,19,7,30.02,29.95,29.88,10,10,10,9,3,12,0.00,0,,323
2013-9-30,97,82,67,53,40,33,42,27,11,29.91,29.85,29.76,10,10,10,13,4,16,0.00,0,,173